Benson, MN

2:43 AM CST on February 19, 2018 (GMT -0600)
Benson Municipal

Weather History for KBBB - March, 2013

Change the Weather History Date:

Friday, March 1, 2013

  Actual Average Record
Temperature  
Mean Temperature 12 °F -  
Max Temperature 24 °F 33 °F 66 °F (1992)
Min Temperature 1 °F 14 °F -27 °F (1962)
Degree Days  
Heating Degree Days 52    
Moisture  
Dew Point 10 °F    
Average Humidity 84    
Maximum Humidity 100    
Minimum Humidity 64    
Precipitation  
Precipitation 0.00 in - - ()
Sea Level Pressure  
Sea Level Pressure 30.33 in    
Wind  
Wind Speed 4 mph (NNE)    
Max Wind Speed 9 mph    
Max Gust Speed -    
Visibility 10 miles    
Events      
Averages and records for this station are not official NWS values.
T = Trace of Precipitation, MM = Missing Value Source: NWS Daily Summary

Daily Weather History Graph

Daily Weather History Graph

Search for Another Location

Airport or City:

Trip Planner

Search our weather history database for the weather conditions in past years. The results will help you decide how hot, cold, wet, or windy it might be!

Date:

Astronomy

Mar. 01, 2013 Rise Set
Actual Time 7:00 AM CST 6:10 PM CST
Civil Twilight 6:30 AM CST 6:39 PM CST
Nautical Twilight 5:56 AM CST 7:13 PM CST
Astronomical Twilight 5:22 AM CST 7:48 PM CST
Moon 11:00 PM CST (3/1) 8:33 AM CST (3/1)
Length of Visible Light 12h 09m
Length of Day
11h 09m
Waning Gibbous, 83% of the Moon is Illuminated
Mar 1
Waning Gibbous
Mar 4
Last Quarter
Mar 11
New
Mar 19
First Quarter
Mar 27
Full

Hourly Weather History & Observations

Time (CST) Temp. Windchill Dew Point Humidity Pressure Visibility Wind Dir Wind Speed Gust Speed Precip Events Conditions
12:12 AM 15.8 °F 10.2 °F 12.2 °F 86% 30.24 in 10.0 mi North 3.5 mph - N/A   Mostly Cloudy
12:32 AM 15.8 °F 8.6 °F 12.2 °F 86% 30.25 in 10.0 mi NNE 4.6 mph - N/A   Overcast
12:53 AM 15.8 °F 8.6 °F 12.2 °F 86% 30.25 in 10.0 mi NNE 4.6 mph - N/A   Scattered Clouds
1:12 AM 14.0 °F 6.5 °F 10.4 °F 86% 30.26 in 10.0 mi NNE 4.6 mph - N/A   Mostly Cloudy
1:33 AM 14.0 °F 8.2 °F 12.2 °F 93% 30.26 in 10.0 mi NE 3.5 mph - N/A   Overcast
2:12 AM 14.0 °F 8.2 °F 10.4 °F 86% 30.26 in 10.0 mi NNE 3.5 mph - N/A   Overcast
2:33 AM 10.4 °F -0.4 °F 8.6 °F 92% 30.27 in 10.0 mi North 6.9 mph - N/A   Overcast
2:53 AM 12.2 °F 4.3 °F 10.4 °F 92% 30.27 in 10.0 mi NNE 4.6 mph - N/A   Overcast
3:12 AM 10.4 °F 2.2 °F 8.6 °F 92% 30.27 in 10.0 mi North 4.6 mph - N/A   Mostly Cloudy
3:52 AM 8.6 °F 2.0 °F 6.8 °F 92% 30.27 in 10.0 mi NE 3.5 mph - N/A   Clear
4:12 AM 8.6 °F - 6.8 °F 92% 30.27 in 10.0 mi Calm Calm - N/A   Clear
4:33 AM 6.8 °F - 5.0 °F 92% 30.28 in 10.0 mi Calm Calm - N/A   Clear
5:12 AM 3.2 °F -6.2 °F 1.4 °F 92% 30.30 in 10.0 mi North 4.6 mph - N/A   Clear
5:33 AM 3.2 °F -4.2 °F 1.4 °F 92% 30.30 in 10.0 mi NNE 3.5 mph - N/A   Clear
5:52 AM 3.2 °F -6.2 °F -0.4 °F 85% 30.31 in 10.0 mi NNE 4.6 mph - N/A   Clear
6:13 AM 3.2 °F -4.2 °F 1.4 °F 92% 30.31 in 10.0 mi NE 3.5 mph - N/A   Clear
6:33 AM 6.8 °F -0.1 °F 5.0 °F 92% 30.31 in 10.0 mi NNE 3.5 mph - N/A   Clear
6:52 AM 1.4 °F -6.2 °F -0.4 °F 92% 30.32 in 10.0 mi NNE 3.5 mph - N/A   Clear
7:13 AM 3.2 °F -6.2 °F 1.4 °F 92% 30.32 in 10.0 mi NNE 4.6 mph - N/A   Mostly Cloudy
7:33 AM 3.2 °F -4.2 °F 1.4 °F 92% 30.33 in 10.0 mi NE 3.5 mph - N/A   Mostly Cloudy
7:52 AM 3.2 °F -6.2 °F 1.4 °F 92% 30.33 in 10.0 mi NE 4.6 mph - N/A   Scattered Clouds
8:32 AM 6.8 °F - 3.2 °F 85% 30.35 in 10.0 mi Calm Calm - N/A   Clear
8:52 AM 10.4 °F 4.0 °F 8.6 °F 92% 30.35 in 10.0 mi NE 3.5 mph - N/A   Clear
9:13 AM 12.2 °F 6.1 °F 8.6 °F 85% 30.35 in 10.0 mi NE 3.5 mph - N/A   Clear
9:32 AM 14.0 °F - 10.4 °F 86% 30.35 in 10.0 mi Calm Calm - N/A   Clear
9:52 AM 15.8 °F 10.2 °F 10.4 °F 79% 30.36 in 10.0 mi North 3.5 mph - N/A   Clear
10:13 AM 19.4 °F 12.8 °F 12.2 °F 74% 30.37 in 10.0 mi NE 4.6 mph - N/A   Clear
10:32 AM 21.2 °F 14.9 °F 14.0 °F 74% 30.37 in 10.0 mi ENE 4.6 mph - N/A   Clear
10:53 AM 23.0 °F 13.9 °F 14.0 °F 68% 30.37 in 10.0 mi East 8.1 mph - N/A   Clear
11:13 AM 23.0 °F 15.8 °F 14.0 °F 68% 30.37 in 10.0 mi ENE 5.8 mph - N/A   Clear
11:32 AM 23.0 °F 14.7 °F 14.0 °F 68% 30.37 in 10.0 mi East 6.9 mph - N/A   Clear
11:53 AM 24.8 °F 17.9 °F 14.0 °F 64% 30.37 in 10.0 mi ENE 5.8 mph - N/A   Clear
12:13 PM 24.8 °F 17.9 °F 15.8 °F 69% 30.37 in 10.0 mi ENE 5.8 mph - N/A   Clear
12:32 PM 24.8 °F 16.9 °F 15.8 °F 69% 30.37 in 10.0 mi NE 6.9 mph - N/A   Clear
12:53 PM 24.8 °F 16.9 °F 15.8 °F 69% 30.37 in 10.0 mi NNE 6.9 mph - N/A   Clear
1:13 PM 24.8 °F 16.9 °F 15.8 °F 69% 30.36 in 10.0 mi North 6.9 mph - N/A   Clear
1:32 PM 24.8 °F 17.9 °F 15.8 °F 69% 30.36 in 10.0 mi NNE 5.8 mph - N/A   Clear
1:53 PM 24.8 °F 16.1 °F 15.8 °F 69% 30.35 in 10.0 mi North 8.1 mph - N/A   Clear
2:13 PM 24.8 °F 16.1 °F 17.6 °F 74% 30.35 in 10.0 mi North 8.1 mph - N/A   Clear
2:32 PM 24.8 °F 16.9 °F 15.8 °F 69% 30.34 in 10.0 mi NNE 6.9 mph - N/A   Clear
2:53 PM 24.8 °F 16.9 °F 17.6 °F 74% 30.35 in 10.0 mi North 6.9 mph - N/A   Clear
3:12 PM 24.8 °F 15.3 °F 17.6 °F 74% 30.35 in 10.0 mi North 9.2 mph - N/A   Clear
3:33 PM 24.8 °F 16.1 °F 17.6 °F 74% 30.35 in 10.0 mi North 8.1 mph - N/A   Clear
3:53 PM 24.8 °F 16.1 °F 17.6 °F 74% 30.35 in 10.0 mi North 8.1 mph - N/A   Clear
4:12 PM 24.8 °F 15.3 °F 17.6 °F 74% 30.35 in 10.0 mi North 9.2 mph - N/A   Clear
4:33 PM 24.8 °F 16.9 °F 17.6 °F 74% 30.35 in 10.0 mi NNW 6.9 mph - N/A   Clear
4:52 PM 23.0 °F 13.9 °F 17.6 °F 80% 30.35 in 10.0 mi North 8.1 mph - N/A   Clear
5:13 PM 21.2 °F 13.6 °F 17.6 °F 86% 30.36 in 10.0 mi North 5.8 mph - N/A   Clear
6:13 PM 17.6 °F 7.3 °F 14.0 °F 86% 30.37 in 10.0 mi North 8.1 mph - N/A   Clear
6:32 PM 15.8 °F 6.1 °F 12.2 °F 86% 30.37 in 10.0 mi North 6.9 mph - N/A   Clear
6:53 PM 14.0 °F 3.9 °F 12.2 °F 93% 30.37 in 10.0 mi North 6.9 mph - N/A   Clear
7:12 PM 12.2 °F 2.9 °F 10.4 °F 92% 30.37 in 10.0 mi North 5.8 mph - N/A   Clear
7:32 PM 12.2 °F 4.3 °F 10.4 °F 92% 30.37 in 10.0 mi North 4.6 mph - N/A   Clear
7:53 PM 10.4 °F 2.2 °F 8.6 °F 92% 30.36 in 10.0 mi North 4.6 mph - N/A   Clear
8:12 PM 10.4 °F 4.0 °F 8.6 °F 92% 30.36 in 10.0 mi North 3.5 mph - N/A   Clear
8:32 PM 8.6 °F -1.3 °F 6.8 °F 92% 30.36 in 10.0 mi North 5.8 mph - N/A   Clear
8:53 PM 8.6 °F 2.0 °F 6.8 °F 92% 30.36 in 10.0 mi North 3.5 mph - N/A   Clear
9:12 PM 6.8 °F -2.0 °F 3.2 °F 85% 30.36 in 10.0 mi North 4.6 mph - N/A   Clear
9:33 PM 8.6 °F 0.1 °F 6.8 °F 92% 30.36 in 10.0 mi North 4.6 mph - N/A   Clear
9:53 PM 6.8 °F - 6.8 °F 100% 30.36 in 10.0 mi Calm Calm - N/A   Clear
10:12 PM 8.6 °F 2.0 °F 6.8 °F 92% 30.36 in 7.0 mi North 3.5 mph - N/A   Clear
10:33 PM 6.8 °F -0.1 °F 6.8 °F 100% 30.36 in 7.0 mi North 3.5 mph - N/A   Clear
10:52 PM 3.2 °F - 1.4 °F 92% 30.35 in 10.0 mi Calm Calm - N/A   Clear
11:12 PM 3.2 °F -4.2 °F 1.4 °F 92% 30.35 in 10.0 mi North 3.5 mph - N/A   Clear
11:33 PM 5.0 °F - 1.4 °F 85% 30.34 in 5.0 mi Calm Calm - N/A   Clear
11:53 PM 5.0 °F - 3.2 °F 92% 30.34 in 2.0 mi Calm Calm - N/A   Clear